When you browse on this site, cookies collect data to enhance your experience and personalize the content and advertising you see.
Visit our Privacy Policy to learn more. By continuing to use the site, you agree to this use of cookies and data.
  • In Schweiz
  • Länderverzeichnis
  • Für 7 Tage
  • Wassertemperatur
  • Satellitenkarten
  • Wetterkarte
  • Widgets
  • user-avatar
    Anmelden

    Stündliche Wetter Krasnyy Uryush

    Heute, 20 Februar, Mittwoch

    Zeit Temperatur Niederschläge Wind Luftdruck Luftfeuchtigkeit
    00:00 -18°C° 0 mm 2 m/S 741 mmHg 96%
    01:00 -16°C° 0 mm 1 m/S 741 mmHg 96%
    02:00 -17°C° 0 mm 1 m/S 741 mmHg 97%
    03:00 -18°C° 0 mm 1 m/S 742 mmHg 98%
    04:00 -19°C° 0 mm 0 m/S 741 mmHg 99%
    05:00 -19°C° 0 mm 0 m/S 742 mmHg 99%
    06:00 -19°C° 0 mm 0 m/S 742 mmHg 98%
    07:00 -19°C° 0 mm 0 m/S 742 mmHg 98%
    08:00 -18°C° 0 mm 1 m/S 743 mmHg 96%
    09:00 -16°C° 0 mm 1 m/S 743 mmHg 94%
    10:00 -15°C° 0 mm 1 m/S 743 mmHg 91%
    11:00 -16°C° 0 mm 2 m/S 743 mmHg 90%
    12:00 -14°C° 0 mm 2 m/S 743 mmHg 89%
    13:00 -14°C° 0 mm 3 m/S 743 mmHg 88%
    14:00 -14°C° 0 mm 3 m/S 743 mmHg 89%
    15:00 -14°C° 0 mm 3 m/S 743 mmHg 90%
    16:00 -15°C° 0 mm 4 m/S 743 mmHg 90%
    17:00 -15°C° 0 mm 4 m/S 742 mmHg 91%
    18:00 -16°C° 0 mm 4 m/S 742 mmHg 92%
    19:00 -17°C° 0 mm 5 m/S 742 mmHg 92%
    20:00 -17°C° 0 mm 5 m/S 742 mmHg 92%
    21:00 -16°C° 0 mm 6 m/S 742 mmHg 91%
    22:00 -16°C° 0 mm 6 m/S 741 mmHg 91%
    23:00 -15°C° 0 mm 6 m/S 741 mmHg 91%

    Morgen, 21 Februar, Donnerstag

    Zeit Temperatur Niederschläge Wind Luftdruck Luftfeuchtigkeit
    00:00 -15°C° 0 mm 6 m/S 741 mmHg 90%
    01:00 -15°C° 0 mm 6 m/S 740 mmHg 90%
    02:00 -14°C° 0.1 mm 6 m/S 740 mmHg 90%
    03:00 -14°C° 0.1 mm 6 m/S 740 mmHg 91%
    04:00 -13°C° 0.1 mm 7 m/S 740 mmHg 91%
    05:00 -13°C° 0.1 mm 7 m/S 740 mmHg 91%
    06:00 -12°C° 0.1 mm 7 m/S 740 mmHg 91%
    07:00 -12°C° 0.1 mm 7 m/S 739 mmHg 91%
    08:00 -11°C° 0.1 mm 6 m/S 740 mmHg 91%
    09:00 -10°C° 0.1 mm 6 m/S 740 mmHg 91%
    10:00 -10°C° 0.1 mm 6 m/S 740 mmHg 91%
    11:00 -9°C° 0.2 mm 6 m/S 740 mmHg 91%
    12:00 -9°C° 0.2 mm 6 m/S 740 mmHg 91%
    13:00 -9°C° 0.2 mm 6 m/S 740 mmHg 92%
    14:00 -8°C° 0.2 mm 6 m/S 740 mmHg 92%
    15:00 -8°C° 0.2 mm 6 m/S 740 mmHg 92%
    16:00 -8°C° 0.2 mm 6 m/S 740 mmHg 92%
    17:00 -8°C° 0.2 mm 6 m/S 741 mmHg 92%
    18:00 -8°C° 0.2 mm 6 m/S 741 mmHg 92%
    19:00 -8°C° 0.2 mm 6 m/S 741 mmHg 92%
    20:00 -8°C° 0.2 mm 6 m/S 741 mmHg 92%
    21:00 -8°C° 0.2 mm 6 m/S 741 mmHg 92%
    22:00 -8°C° 0.2 mm 6 m/S 741 mmHg 92%
    23:00 -6°C° 0.3 mm 6 m/S 741 mmHg 92%

    übermorgen, 22 Februar, Freitag

    Zeit Temperatur Niederschläge Wind Luftdruck Luftfeuchtigkeit
    00:00 -6°C° 0.3 mm 6 m/S 741 mmHg 92%
    01:00 -5°C° 0.3 mm 6 m/S 741 mmHg 92%
    02:00 -5°C° 0.2 mm 6 m/S 741 mmHg 91%
    03:00 -5°C° 0.2 mm 6 m/S 741 mmHg 91%
    04:00 -6°C° 0.2 mm 7 m/S 741 mmHg 90%
    05:00 -6°C° 0.1 mm 7 m/S 741 mmHg 90%
    06:00 -5°C° 0.1 mm 6 m/S 741 mmHg 90%
    07:00 -6°C° 0.1 mm 6 m/S 741 mmHg 90%
    08:00 -5°C° 0.1 mm 6 m/S 741 mmHg 90%
    09:00 -5°C° 0.1 mm 6 m/S 741 mmHg 90%
    10:00 -5°C° 0.1 mm 6 m/S 741 mmHg 90%
    11:00 -5°C° 0.1 mm 6 m/S 741 mmHg 90%
    12:00 -4°C° 0.1 mm 6 m/S 741 mmHg 89%
    13:00 -4°C° 0.1 mm 6 m/S 741 mmHg 89%
    14:00 -3°C° 0.1 mm 6 m/S 741 mmHg 88%
    15:00 -3°C° 0.1 mm 6 m/S 741 mmHg 87%
    16:00 -2°C° 0.1 mm 5 m/S 741 mmHg 86%
    17:00 -2°C° 0.2 mm 5 m/S 741 mmHg 87%
    18:00 -2°C° 0.2 mm 5 m/S 741 mmHg 88%
    19:00 -4°C° 0.2 mm 5 m/S 741 mmHg 89%
    20:00 -4°C° 0.4 mm 5 m/S 741 mmHg 90%
    21:00 -4°C° 0.4 mm 5 m/S 742 mmHg 91%
    22:00 -4°C° 0.4 mm 5 m/S 742 mmHg 92%
    23:00 -6°C° 0.1 mm 5 m/S 743 mmHg 91%

    23 Februar, Samstag

    Zeit Temperatur Niederschläge Wind Luftdruck Luftfeuchtigkeit
    00:00 -8°C° 0.1 mm 5 m/S 743 mmHg 90%
    01:00 -11°C° 0.1 mm 5 m/S 744 mmHg 89%
    02:00 -11°C° 0 mm 4 m/S 745 mmHg 90%
    03:00 -12°C° 0 mm 4 m/S 745 mmHg 92%
    04:00 -14°C° 0 mm 4 m/S 746 mmHg 93%
    05:00 -14°C° 0.1 mm 4 m/S 746 mmHg 93%
    06:00 -12°C° 0.1 mm 4 m/S 747 mmHg 93%
    07:00 -11°C° 0.1 mm 4 m/S 747 mmHg 93%
    08:00 -11°C° 0.1 mm 4 m/S 747 mmHg 92%
    09:00 -11°C° 0.1 mm 5 m/S 748 mmHg 92%
    10:00 -11°C° 0.1 mm 5 m/S 748 mmHg 91%
    11:00 -10°C° 0.1 mm 5 m/S 748 mmHg 90%
    12:00 -10°C° 0.1 mm 5 m/S 748 mmHg 88%
    13:00 -8°C° 0.1 mm 5 m/S 749 mmHg 87%
    14:00 -10°C° 0.2 mm 5 m/S 749 mmHg 88%
    15:00 -10°C° 0.2 mm 5 m/S 749 mmHg 89%
    16:00 -11°C° 0.2 mm 5 m/S 749 mmHg 91%
    17:00 -11°C° 0.1 mm 5 m/S 749 mmHg 91%
    18:00 -11°C° 0.1 mm 5 m/S 750 mmHg 91%
    19:00 -11°C° 0.1 mm 5 m/S 750 mmHg 92%
    20:00 -11°C° 0.2 mm 5 m/S 750 mmHg 93%
    21:00 -11°C° 0.2 mm 5 m/S 750 mmHg 93%
    22:00 -10°C° 0.2 mm 4 m/S 751 mmHg 94%
    23:00 -10°C° 0.1 mm 4 m/S 751 mmHg 94%

    24 Februar, Sonntag

    Zeit Temperatur Niederschläge Wind Luftdruck Luftfeuchtigkeit
    00:00 -11°C° 0.1 mm 4 m/S 751 mmHg 95%
    01:00 -10°C° 0.1 mm 3 m/S 751 mmHg 95%
    02:00 -10°C° 0.1 mm 3 m/S 752 mmHg 96%
    03:00 -12°C° 0.1 mm 3 m/S 752 mmHg 96%
    04:00 -12°C° 0.1 mm 3 m/S 752 mmHg 97%
    05:00 -10°C° 0.1 mm 3 m/S 752 mmHg 96%
    06:00 -10°C° 0.1 mm 3 m/S 752 mmHg 96%
    07:00 -10°C° 0.1 mm 4 m/S 752 mmHg 95%
    08:00 -11°C° 0.1 mm 4 m/S 752 mmHg 94%
    09:00 -11°C° 0.1 mm 4 m/S 753 mmHg 94%
    10:00 -11°C° 0.1 mm 4 m/S 753 mmHg 93%
    11:00 -11°C° 0.1 mm 4 m/S 753 mmHg 92%
    12:00 -11°C° 0.1 mm 4 m/S 753 mmHg 91%
    13:00 -10°C° 0.1 mm 4 m/S 753 mmHg 91%
    14:00 -11°C° 0.1 mm 5 m/S 753 mmHg 91%
    15:00 -11°C° 0.1 mm 5 m/S 753 mmHg 91%
    16:00 -11°C° 0.1 mm 5 m/S 753 mmHg 90%
    17:00 -11°C° 0.1 mm 5 m/S 753 mmHg 91%
    18:00 -12°C° 0.1 mm 5 m/S 753 mmHg 91%
    19:00 -11°C° 0.1 mm 4 m/S 753 mmHg 92%
    20:00 -12°C° 0.1 mm 5 m/S 753 mmHg 92%
    21:00 -12°C° 0.1 mm 5 m/S 753 mmHg 92%
    22:00 -13°C° 0.1 mm 5 m/S 752 mmHg 92%
    23:00 -13°C° 0.1 mm 5 m/S 752 mmHg 93%

    25 Februar, Montag

    Zeit Temperatur Niederschläge Wind Luftdruck Luftfeuchtigkeit
    00:00 -14°C° 0.1 mm 5 m/S 752 mmHg 93%
    01:00 -14°C° 0.1 mm 5 m/S 752 mmHg 94%
    02:00 -14°C° 0.2 mm 5 m/S 752 mmHg 94%
    03:00 -14°C° 0.2 mm 4 m/S 752 mmHg 94%
    04:00 -14°C° 0.2 mm 4 m/S 751 mmHg 94%
    05:00 -15°C° 0.1 mm 4 m/S 751 mmHg 94%
    06:00 -15°C° 0.1 mm 4 m/S 751 mmHg 95%
    07:00 -15°C° 0.1 mm 4 m/S 750 mmHg 95%
    08:00 -14°C° 0.1 mm 4 m/S 750 mmHg 95%
    09:00 -14°C° 0.1 mm 4 m/S 750 mmHg 95%
    10:00 -14°C° 0.1 mm 4 m/S 750 mmHg 94%
    11:00 -12°C° 0.1 mm 4 m/S 749 mmHg 94%
    12:00 -11°C° 0.1 mm 4 m/S 749 mmHg 93%
    13:00 -11°C° 0.1 mm 5 m/S 749 mmHg 93%
    14:00 -11°C° 0.1 mm 5 m/S 748 mmHg 92%
    15:00 -10°C° 0.1 mm 5 m/S 748 mmHg 92%
    16:00 -10°C° 0.1 mm 5 m/S 747 mmHg 91%
    17:00 -10°C° 0.1 mm 5 m/S 747 mmHg 92%
    18:00 -10°C° 0.1 mm 5 m/S 747 mmHg 92%
    19:00 -11°C° 0.1 mm 5 m/S 746 mmHg 93%
    20:00 -11°C° 0.1 mm 5 m/S 746 mmHg 93%
    21:00 -11°C° 0.1 mm 5 m/S 746 mmHg 93%
    22:00 -11°C° 0.1 mm 5 m/S 745 mmHg 93%
    23:00 -11°C° 0.1 mm 5 m/S 745 mmHg 93%
    Mehr zeigen